Weather in Kabitsyno

Russia / Kaluga Oblast     55°08′23″N   36°37′40″E
temp.,
°C
wind,
m/s
gust,
m/s
humid.,
%
clouds,
%
prec.,
mm/h
press.,
hPa
HPBL,
m
24 may, tue
tue2400:00+4wnw3969100 0.0 1006161
03:00+3nw2567100 0.0 100789
06:00+5wnw3963100 0.0 1007273
09:00+8nw51151100 0.0 10071002
12:00+11nw7113399 0.0 10071884
15:00+10n695099 0.0 10091741
18:00+8nnw586175 0.0 10111320
21:00+4n257919 0.0 101385
25 may, wed
wed2500:00+1nnw23919 0.0 101453
03:000nnw23965 0.0 101662
06:00+2nnw248528 0.0 1017167
09:00+7nnw355588 0.0 10161419
12:00+9nw344897 0.0 10161627
15:00+11wnw5551100 0.0 10161535
18:00+8wnw347186 0.0 1016747
21:00+4wsw229417 0.0 101618
26 may, thu
thu2600:00+3wsw239699 0.0 101655
03:00+3sw2597100 0.0 101588
06:00+6sw269197 0.0 1012149
09:00+14sw356217 0.0 1010450
12:00+17sw4762100 0.8 10081306
15:00+13wsw51082100 1.9 1007561
18:00+10ne1198100 3.3 100532
21:00+10wnw1297100 7.8 100462
27 may, fri
fri2700:00+7wsw399999 0.0 1003221
03:00+8wsw41298100 0.1 1002377
06:00+10wsw5139787 1.4 1001767
09:00+9w6119160 2.1 1003989
12:00+14w7116323 0.6 10031684
15:00+16wnw5105098 0.8 10032337
18:00+16wsw485494 0.0 10031358
21:00+11ssw357397 0.0 100382
28 may, sat
sat2800:00+10ssw2796100 1.7 1000290
03:00+12ssw71597100 9.8 9961271
06:00+9wsw6129486 0.8 998953
09:00+11wsw611781 1.1 10001163
12:00+14wsw710465 0.0 10022067
15:00+13wsw61063100 0.4 10031584
18:00+12wsw498295 1.3 10051111
21:00+8sw3992100 1.4 1006305